| time (UTC) | temp C | wind direction | speed KPH | gust KPH | rain 1hr cm | rain 24hr cm | rain mn cm | humidity % | barometer mb |
| 20260831025450 | 28 | 342 | 0.0 | 0.0 | 0.00 | 0.00 | 0.00 | 83 | 1014.9 |
| 20260831024916 | 28 | 342 | 0.0 | 0.0 | 0.00 | 0.00 | 0.00 | 83 | 1014.9 |
| 20260831024406 | 28 | 342 | 0.0 | 0.0 | 0.00 | 0.00 | 0.00 | 83 | 1014.9 |
| 20260831023903 | 28 | 342 | 0.0 | 0.0 | 0.00 | 0.00 | 0.00 | 83 | 1014.9 |
| 20260831023400 | 28 | 342 | 0.0 | 0.0 | 0.00 | 0.00 | 0.00 | 82 | 1014.6 |
| 20260831022823 | 28 | 342 | 0.0 | 0.0 | 0.00 | 0.00 | 0.00 | 82 | 1014.6 |
| 20260831022237 | 28 | 342 | 0.0 | 0.0 | 0.00 | 0.00 | 0.00 | 82 | 1014.6 |
| 20260831021734 | 28 | 342 | 0.0 | 0.0 | 0.00 | 0.00 | 0.00 | 81 | 1014.6 |
| 20260831021212 | 28 | 342 | 0.0 | 0.0 | 0.00 | 0.00 | 0.00 | 81 | 1014.2 |
| 20260831020710 | 28 | 342 | 0.0 | 0.0 | 0.00 | 0.00 | 0.00 | 81 | 1014.2 |
| 20260831020148 | 28 | 342 | 0.0 | 0.0 | 0.00 | 0.00 | 0.00 | 81 | 1014.2 |
| 20260831015626 | 29 | 342 | 0.0 | 0.0 | 0.00 | 0.00 | 0.00 | 81 | 1014.2 |
| 20260831015123 | 29 | 342 | 0.0 | 0.0 | 0.00 | 0.00 | 0.00 | 80 | 1014.2 |
| 20260831014620 | 29 | 342 | 0.0 | 0.0 | 0.00 | 0.00 | 0.00 | 80 | 1014.2 |
| 20260831014117 | 29 | 342 | 0.0 | 0.0 | 0.00 | 0.00 | 0.00 | 79 | 1014.2 |
| 20260831013614 | 29 | 342 | 0.0 | 0.0 | 0.00 | 0.00 | 0.00 | 79 | 1014.2 |
| 20260831013110 | 30 | 342 | 0.0 | 1.6 | 0.00 | 0.00 | 0.00 | 78 | 1014.2 |
| 20260831012608 | 30 | 342 | 0.0 | 1.6 | 0.00 | 0.00 | 0.00 | 78 | 1014.2 |
| 20260831012104 | 30 | 342 | 0.0 | 1.6 | 0.00 | 0.00 | 0.00 | 77 | 1013.9 |
| 20260831011530 | 30 | 342 | 1.6 | 1.6 | 0.00 | 0.00 | 0.00 | 77 | 1014.2 |
| 20260831011027 | 30 | 342 | 0.0 | 1.6 | 0.00 | 0.00 | 0.00 | 77 | 1013.9 |
| 20260831010524 | 30 | 342 | 0.0 | 1.6 | 0.00 | 0.00 | 0.00 | 76 | 1013.9 |
| 20260831010002 | 30 | 342 | 0.0 | 3.2 | 0.00 | 0.00 | 0.00 | 76 | 1013.9 |
| 20260831005459 | 30 | 342 | 0.0 | 3.2 | 0.00 | 0.00 | 0.00 | 76 | 1013.9 |
| 20260831004957 | 30 | 342 | 0.0 | 3.2 | 0.00 | 0.00 | 0.00 | 75 | 1013.9 |
| 20260831004453 | 30 | 342 | 0.0 | 3.2 | 0.00 | 0.00 | 0.00 | 74 | 1013.9 |
| 20260831003951 | 31 | 343 | 0.0 | 3.2 | 0.00 | 0.00 | 0.00 | 74 | 1013.9 |
| 20260831003448 | 31 | 344 | 0.0 | 3.2 | 0.00 | 0.00 | 0.00 | 74 | 1013.9 |
| 20260831002945 | 31 | 344 | 0.0 | 3.2 | 0.00 | 0.00 | 0.00 | 73 | 1013.9 |
| 20260831002442 | 31 | 344 | 0.0 | 3.2 | 0.00 | 0.00 | 0.00 | 73 | 1013.9 |
| 20260831001938 | 31 | 344 | 0.0 | 3.2 | 0.00 | 0.00 | 0.00 | 73 | 1013.9 |
| 20260831001434 | 31 | 22 | 1.6 | 1.6 | 0.00 | 0.00 | 0.00 | 71 | 1013.9 |
| 20260831000913 | 32 | 22 | 0.0 | 1.6 | 0.00 | 0.00 | 0.00 | 71 | 1013.9 |
| 20260831000325 | 32 | 22 | 0.0 | 1.6 | 0.00 | 0.00 | 0.00 | 71 | 1014.2 |
| 20260830235821 | 32 | 22 | 0.0 | 3.2 | 0.00 | 0.00 | 0.00 | 70 | 1013.9 |
| 20260830235311 | 32 | 22 | 1.6 | 3.2 | 0.00 | 0.00 | 0.00 | 69 | 1013.9 |
| 20260830234755 | 32 | 22 | 0.0 | 3.2 | 0.00 | 0.00 | 0.00 | 68 | 1013.9 |
| 20260830234202 | 33 | 24 | 1.6 | 4.8 | 0.00 | 0.00 | 0.00 | 68 | 1013.9 |
| 20260830233640 | 33 | 123 | 1.6 | 4.8 | 0.00 | 0.00 | 0.00 | 67 | 1013.9 |
| 20260830233047 | 33 | 124 | 1.6 | 4.8 | 0.00 | 0.00 | 0.00 | 66 | 1013.9 |
| 20260830232544 | 33 | 272 | 1.6 | 4.8 | 0.00 | 0.00 | 0.00 | 66 | 1013.9 |
| 20260830232041 | 33 | 274 | 1.6 | 4.8 | 0.00 | 0.00 | 0.00 | 65 | 1013.9 |
| 20260830231539 | 33 | 135 | 1.6 | 3.2 | 0.00 | 0.00 | 0.00 | 65 | 1013.9 |
| 20260830231036 | 33 | 124 | 1.6 | 3.2 | 0.00 | 0.00 | 0.00 | 65 | 1013.9 |
| 20260830230533 | 33 | 190 | 1.6 | 3.2 | 0.00 | 0.00 | 0.00 | 65 | 1013.9 |
| 20260830230030 | 34 | 206 | 1.6 | 3.2 | 0.00 | 0.00 | 0.00 | 65 | 1013.9 |
| 20260830225527 | 34 | 207 | 0.0 | 4.8 | 0.00 | 0.00 | 0.00 | 65 | 1013.9 |
| 20260830225023 | 34 | 207 | 1.6 | 4.8 | 0.00 | 0.00 | 0.00 | 64 | 1013.9 |
| 20260830224519 | 34 | 31 | 1.6 | 4.8 | 0.00 | 0.00 | 0.00 | 64 | 1013.9 |
| 20260830224016 | 35 | 84 | 1.6 | 4.8 | 0.00 | 0.00 | 0.00 | 63 | 1013.9 |
| 20260830223441 | 35 | 39 | 1.6 | 3.2 | 0.00 | 0.00 | 0.00 | 64 | 1013.9 |
| 20260830222907 | 35 | 42 | 1.6 | 4.8 | 0.00 | 0.00 | 0.00 | 64 | 1013.9 |
| 20260830222404 | 35 | 29 | 1.6 | 4.8 | 0.00 | 0.00 | 0.00 | 63 | 1013.9 |
| 20260830221901 | 35 | 261 | 1.6 | 4.8 | 0.00 | 0.00 | 0.00 | 62 | 1013.9 |
| 20260830221358 | 35 | 315 | 1.6 | 4.8 | 0.00 | 0.00 | 0.00 | 63 | 1013.9 |
| 20260830220855 | 35 | 15 | 1.6 | 8.0 | 0.00 | 0.00 | 0.00 | 64 | 1013.9 |
| 20260830220353 | 35 | 295 | 1.6 | 8.0 | 0.00 | 0.00 | 0.00 | 64 | 1013.9 |
| 20260830215759 | 35 | 40 | 1.6 | 8.0 | 0.00 | 0.00 | 0.00 | 64 | 1013.9 |
| 20260830215224 | 35 | 23 | 3.2 | 11.3 | 0.00 | 0.00 | 0.00 | 64 | 1013.9 |
| 20260830214722 | 36 | 36 | 1.6 | 11.3 | 0.00 | 0.00 | 0.00 | 65 | 1013.9 |
| 20260830214148 | 36 | 70 | 3.2 | 11.3 | 0.00 | 0.00 | 0.00 | 65 | 1013.9 |
| 20260830213644 | 36 | 44 | 3.2 | 11.3 | 0.00 | 0.00 | 0.00 | 64 | 1013.9 |
| 20260830213141 | 36 | 29 | 1.6 | 8.0 | 0.00 | 0.00 | 0.00 | 64 | 1013.9 |
| 20260830212637 | 36 | 8 | 3.2 | 8.0 | 0.00 | 0.00 | 0.00 | 64 | 1013.9 |
| 20260830212134 | 36 | 53 | 3.2 | 9.7 | 0.00 | 0.00 | 0.00 | 64 | 1013.9 |
| 20260830211631 | 36 | 47 | 1.6 | 11.3 | 0.00 | 0.00 | 0.00 | 65 | 1013.9 |
| 20260830211111 | 36 | 356 | 3.2 | 11.3 | 0.00 | 0.00 | 0.00 | 65 | 1014.2 |
| 20260830210549 | 36 | 12 | 4.8 | 11.3 | 0.00 | 0.00 | 0.00 | 64 | 1014.2 |
| 20260830210038 | 36 | 314 | 1.6 | 11.3 | 0.00 | 0.00 | 0.00 | 64 | 1014.2 |
| 20260830205508 | 36 | 25 | 3.2 | 9.7 | 0.00 | 0.00 | 0.00 | 64 | 1014.6 |
| 20260830204915 | 36 | 58 | 3.2 | 9.7 | 0.00 | 0.00 | 0.00 | 64 | 1014.6 |
| 20260830204341 | 36 | 31 | 1.6 | 9.7 | 0.00 | 0.00 | 0.00 | 65 | 1014.6 |
| 20260830203838 | 36 | 21 | 1.6 | 9.7 | 0.00 | 0.00 | 0.00 | 65 | 1014.6 |
| 20260830203335 | 36 | 298 | 1.6 | 8.0 | 0.00 | 0.00 | 0.00 | 64 | 1014.6 |
| 20260830202832 | 36 | 94 | 3.2 | 8.0 | 0.00 | 0.00 | 0.00 | 64 | 1014.6 |
| 20260830202313 | 36 | 285 | 1.6 | 8.0 | 0.00 | 0.00 | 0.00 | 63 | 1014.6 |
| 20260830201811 | 36 | 332 | 1.6 | 11.3 | 0.00 | 0.00 | 0.00 | 64 | 1014.9 |
| 20260830201308 | 36 | 85 | 3.2 | 11.3 | 0.00 | 0.00 | 0.00 | 64 | 1014.9 |
| 20260830200805 | 36 | 61 | 3.2 | 11.3 | 0.00 | 0.00 | 0.00 | 65 | 1014.9 |
| 20260830200303 | 36 | 66 | 3.2 | 11.3 | 0.00 | 0.00 | 0.00 | 64 | 1014.9 |
| 20260830195800 | 36 | 62 | 3.2 | 16.1 | 0.00 | 0.00 | 0.00 | 64 | 1014.9 |
| 20260830195257 | 36 | 46 | 4.8 | 16.1 | 0.00 | 0.00 | 0.00 | 64 | 1015.2 |
| 20260830194739 | 36 | 64 | 3.2 | 16.1 | 0.00 | 0.00 | 0.00 | 64 | 1015.2 |
| 20260830194133 | 36 | 61 | 4.8 | 16.1 | 0.00 | 0.00 | 0.00 | 63 | 1015.2 |
| 20260830193611 | 36 | 63 | 3.2 | 8.0 | 0.00 | 0.00 | 0.00 | 64 | 1015.2 |
| 20260830193109 | 36 | 323 | 3.2 | 11.3 | 0.00 | 0.00 | 0.00 | 65 | 1015.6 |
| 20260830192606 | 36 | 56 | 3.2 | 19.3 | 0.00 | 0.00 | 0.00 | 68 | 1015.6 |
| 20260830192045 | 35 | 55 | 3.2 | 19.3 | 0.00 | 0.00 | 0.00 | 68 | 1015.6 |
| 20260830191542 | 36 | 60 | 4.8 | 19.3 | 0.00 | 0.00 | 0.00 | 66 | 1015.6 |
| 20260830191001 | 36 | 55 | 6.4 | 19.3 | 0.00 | 0.00 | 0.00 | 66 | 1015.6 |
| 20260830190458 | 36 | 62 | 3.2 | 8.0 | 0.00 | 0.00 | 0.00 | 66 | 1015.9 |
| 20260830185956 | 36 | 346 | 3.2 | 11.3 | 0.00 | 0.00 | 0.00 | 66 | 1015.9 |
| 20260830185452 | 36 | 329 | 3.2 | 11.3 | 0.00 | 0.00 | 0.00 | 67 | 1015.9 |
| 20260830184949 | 36 | 47 | 4.8 | 11.3 | 0.00 | 0.00 | 0.00 | 66 | 1015.9 |
| 20260830184313 | 36 | 42 | 4.8 | 9.7 | 0.00 | 0.00 | 0.00 | 66 | 1015.9 |
| 20260830183806 | 36 | 87 | 3.2 | 8.0 | 0.00 | 0.00 | 0.00 | 67 | 1015.9 |
| 20260830183302 | 36 | 11 | 3.2 | 8.0 | 0.00 | 0.00 | 0.00 | 67 | 1016.3 |
| 20260830182759 | 36 | 39 | 3.2 | 8.0 | 0.00 | 0.00 | 0.00 | 66 | 1016.3 |
| 20260830182256 | 36 | 57 | 3.2 | 12.9 | 0.00 | 0.00 | 0.00 | 65 | 1016.3 |
| 20260830181752 | 36 | 47 | 3.2 | 12.9 | 0.00 | 0.00 | 0.00 | 65 | 1016.3 |
| 20260830181249 | 37 | 39 | 3.2 | 12.9 | 0.00 | 0.00 | 0.00 | 64 | 1016.6 |
| 20260830180746 | 37 | 347 | 1.6 | 6.4 | 0.00 | 0.00 | 0.00 | 64 | 1016.6 |
| 20260830180243 | 36 | 283 | 3.2 | 6.4 | 0.00 | 0.00 | 0.00 | 59 | 1016.6 |
| 20260830175718 | 36 | 277 | 1.6 | 6.4 | 0.00 | 0.00 | 0.00 | 59 | 1016.6 |
| 20260830175215 | 36 | 277 | 1.6 | 6.4 | 0.00 | 0.00 | 0.00 | 59 | 1016.9 |
| 20260830174712 | 36 | 231 | 1.6 | 6.4 | 0.00 | 0.00 | 0.00 | 60 | 1016.9 |
| 20260830174159 | 36 | 256 | 1.6 | 9.7 | 0.00 | 0.00 | 0.00 | 62 | 1016.9 |
| 20260830173655 | 36 | 54 | 1.6 | 11.3 | 0.00 | 0.00 | 0.00 | 61 | 1016.9 |
| 20260830173140 | 36 | 233 | 3.2 | 11.3 | 0.00 | 0.00 | 0.00 | 61 | 1017.3 |
| 20260830172504 | 36 | 264 | 4.8 | 11.3 | 0.00 | 0.00 | 0.00 | 62 | 1017.3 |
| 20260830172002 | 36 | 265 | 4.8 | 11.3 | 0.00 | 0.00 | 0.00 | 64 | 1017.3 |
| 20260830171459 | 35 | 248 | 0.0 | 0.0 | 0.00 | 0.00 | 0.00 | 64 | 1017.3 |
| 20260830170906 | 35 | 348 | 0.0 | 0.0 | 0.00 | 0.00 | 0.00 | 66 | 1017.3 |
| 20260830170402 | 35 | 277 | 0.0 | 0.0 | 0.00 | 0.00 | 0.00 | 67 | 1017.3 |
| 20260830165859 | 35 | 341 | 0.0 | 0.0 | 0.00 | 0.00 | 0.00 | 68 | 1017.3 |
| 20260830165356 | 35 | 341 | 0.0 | 0.0 | 0.00 | 0.00 | 0.00 | 66 | 1017.3 |
| 20260830164834 | 35 | 210 | 0.0 | 6.4 | 0.00 | 0.00 | 0.00 | 69 | 1017.3 |
| 20260830164332 | 34 | 242 | 0.0 | 6.4 | 0.00 | 0.00 | 0.00 | 69 | 1017.3 |
| 20260830163829 | 34 | 222 | 0.0 | 6.4 | 0.00 | 0.00 | 0.00 | 69 | 1017.3 |
| 20260830163326 | 33 | 288 | 0.0 | 0.0 | 0.00 | 0.00 | 0.00 | 69 | 1017.3 |
| 20260830162721 | 33 | 331 | 0.0 | 0.0 | 0.00 | 0.00 | 0.00 | 69 | 1017.3 |
| 20260830162218 | 33 | 254 | 0.0 | 0.0 | 0.00 | 0.00 | 0.00 | 72 | 1017.3 |
| 20260830161644 | 33 | 262 | 0.0 | 0.0 | 0.00 | 0.00 | 0.00 | 73 | 1017.6 |
| 20260830161141 | 33 | 18 | 0.0 | 3.2 | 0.00 | 0.00 | 0.00 | 71 | 1017.6 |
| 20260830160549 | 33 | 238 | 0.0 | 3.2 | 0.00 | 0.00 | 0.00 | 73 | 1017.6 |
| 20260830160046 | 33 | 264 | 0.0 | 3.2 | 0.00 | 0.00 | 0.00 | 73 | 1017.3 |
| 20260830155501 | 33 | 236 | 0.0 | 0.0 | 0.00 | 0.00 | 0.00 | 74 | 1017.3 |
| 20260830154953 | 33 | 297 | 0.0 | 0.0 | 0.00 | 0.00 | 0.00 | 74 | 1017.3 |
| 20260830154450 | 32 | 314 | 0.0 | 0.0 | 0.00 | 0.00 | 0.00 | 75 | 1017.3 |
| 20260830153859 | 32 | 250 | 0.0 | 0.0 | 0.00 | 0.00 | 0.00 | 77 | 1017.3 |
| 20260830153325 | 32 | 252 | 0.0 | 0.0 | 0.00 | 0.00 | 0.00 | 78 | 1017.3 |
| 20260830152751 | 31 | 240 | 0.0 | 0.0 | 0.00 | 0.00 | 0.00 | 79 | 1017.6 |
| 20260830152248 | 31 | 259 | 0.0 | 0.0 | 0.00 | 0.00 | 0.00 | 80 | 1017.6 |
| 20260830151726 | 31 | 252 | 0.0 | 1.6 | 0.00 | 0.00 | 0.00 | 80 | 1017.6 |
| 20260830151152 | 30 | 248 | 0.0 | 1.6 | 0.00 | 0.00 | 0.00 | 80 | 1017.6 |
| 20260830150649 | 30 | 248 | 0.0 | 1.6 | 0.00 | 0.00 | 0.00 | 81 | 1017.6 |
| 20260830150127 | 30 | 263 | 1.6 | 1.6 | 0.00 | 0.00 | 0.00 | 82 | 1017.6 |
| 20260830145623 | 30 | 237 | 0.0 | 0.0 | 0.00 | 0.00 | 0.00 | 83 | 1017.6 |
| 20260830145031 | 30 | 236 | 0.0 | 0.0 | 0.00 | 0.00 | 0.00 | 83 | 1017.6 |
| 20260830144510 | 30 | 253 | 0.0 | 0.0 | 0.00 | 0.00 | 0.00 | 84 | 1017.6 |
| 20260830143936 | 30 | 253 | 0.0 | 0.0 | 0.00 | 0.00 | 0.00 | 84 | 1017.6 |
| 20260830143433 | 29 | 249 | 0.0 | 0.0 | 0.00 | 0.00 | 0.00 | 85 | 1017.6 |
| 20260830142859 | 29 | 250 | 0.0 | 0.0 | 0.00 | 0.00 | 0.00 | 86 | 1017.6 |
| 20260830142357 | 28 | 286 | 0.0 | 0.0 | 0.00 | 0.00 | 0.00 | 86 | 1017.6 |
| 20260830141835 | 28 | 276 | 0.0 | 0.0 | 0.00 | 0.00 | 0.00 | 86 | 1017.6 |
| 20260830141313 | 28 | 306 | 0.0 | 0.0 | 0.00 | 0.00 | 0.00 | 87 | 1017.6 |
| 20260830140709 | 28 | 306 | 0.0 | 0.0 | 0.00 | 0.00 | 0.00 | 88 | 1017.6 |
| 20260830140205 | 28 | 306 | 0.0 | 0.0 | 0.00 | 0.00 | 0.00 | 88 | 1017.3 |
| 20260830135627 | 28 | 307 | 0.0 | 0.0 | 0.00 | 0.00 | 0.00 | 88 | 1017.3 |
| 20260830135110 | 27 | 307 | 0.0 | 0.0 | 0.00 | 0.00 | 0.00 | 89 | 1017.3 |
| 20260830134536 | 27 | 307 | 0.0 | 0.0 | 0.00 | 0.00 | 0.00 | 90 | 1017.3 |
| 20260830134033 | 27 | 307 | 0.0 | 0.0 | 0.00 | 0.00 | 0.00 | 91 | 1017.3 |
| 20260830133514 | 27 | 307 | 0.0 | 0.0 | 0.00 | 0.00 | 0.00 | 91 | 1017.3 |
| 20260830133011 | 27 | 306 | 0.0 | 0.0 | 0.00 | 0.00 | 0.00 | 91 | 1017.3 |
| 20260830132507 | 26 | 306 | 0.0 | 0.0 | 0.00 | 0.00 | 0.00 | 93 | 1016.9 |
| 20260830131946 | 26 | 307 | 0.0 | 0.0 | 0.00 | 0.00 | 0.00 | 94 | 1016.9 |
| 20260830131424 | 26 | 307 | 0.0 | 0.0 | 0.00 | 0.00 | 0.00 | 94 | 1016.9 |
| 20260830130903 | 26 | 307 | 0.0 | 0.0 | 0.00 | 0.00 | 0.00 | 94 | 1016.9 |
| 20260830130400 | 25 | 307 | 0.0 | 0.0 | 0.00 | 0.00 | 0.00 | 94 | 1016.9 |
| 20260830125837 | 25 | 307 | 0.0 | 0.0 | 0.00 | 0.00 | 0.00 | 94 | 1016.9 |
| 20260830125335 | 25 | 307 | 0.0 | 0.0 | 0.00 | 0.00 | 0.00 | 95 | 1016.9 |
| 20260830124832 | 25 | 306 | 0.0 | 0.0 | 0.00 | 0.00 | 0.00 | 94 | 1016.6 |
| 20260830124328 | 25 | 306 | 0.0 | 0.0 | 0.00 | 0.00 | 0.00 | 94 | 1016.6 |
| 20260830123825 | 25 | 307 | 0.0 | 0.0 | 0.00 | 0.00 | 0.00 | 94 | 1016.6 |
| 20260830123322 | 25 | 307 | 0.0 | 0.0 | 0.00 | 0.00 | 0.00 | 94 | 1016.6 |
| 20260830122819 | 25 | 307 | 0.0 | 0.0 | 0.00 | 0.00 | 0.00 | 94 | 1016.6 |
| 20260830122317 | 25 | 306 | 0.0 | 0.0 | 0.00 | 0.00 | 0.00 | 94 | 1016.3 |
| 20260830121813 | 25 | 307 | 0.0 | 0.0 | 0.00 | 0.00 | 0.00 | 94 | 1016.6 |
| 20260830121310 | 25 | 307 | 0.0 | 0.0 | 0.00 | 0.00 | 0.00 | 94 | 1016.6 |
| 20260830120807 | 25 | 307 | 0.0 | 0.0 | 0.00 | 0.00 | 0.00 | 94 | 1016.6 |
| 20260830120303 | 25 | 307 | 0.0 | 0.0 | 0.00 | 0.00 | 0.00 | 94 | 1016.6 |
| 20260830115759 | 25 | 306 | 0.0 | 0.0 | 0.00 | 0.00 | 0.00 | 94 | 1016.6 |
| 20260830115256 | 25 | 307 | 0.0 | 0.0 | 0.00 | 0.00 | 0.00 | 94 | 1016.6 |
| 20260830114723 | 25 | 307 | 0.0 | 0.0 | 0.00 | 0.00 | 0.00 | 94 | 1016.6 |
| 20260830114220 | 25 | 307 | 0.0 | 0.0 | 0.00 | 0.00 | 0.00 | 94 | 1016.6 |
| 20260830113701 | 25 | 307 | 0.0 | 0.0 | 0.00 | 0.00 | 0.00 | 94 | 1016.6 |
| 20260830113056 | 25 | 306 | 0.0 | 0.0 | 0.00 | 0.00 | 0.00 | 94 | 1016.6 |
| 20260830112553 | 25 | 306 | 0.0 | 0.0 | 0.00 | 0.00 | 0.00 | 94 | 1016.3 |
| 20260830112032 | 25 | 307 | 0.0 | 0.0 | 0.00 | 0.00 | 0.00 | 93 | 1016.3 |
| 20260830111528 | 25 | 307 | 0.0 | 0.0 | 0.00 | 0.00 | 0.00 | 94 | 1016.3 |
| 20260830111025 | 25 | 306 | 0.0 | 0.0 | 0.00 | 0.00 | 0.00 | 93 | 1016.3 |
| 20260830110522 | 25 | 307 | 0.0 | 0.0 | 0.00 | 0.00 | 0.00 | 93 | 1016.3 |
| 20260830110019 | 25 | 306 | 0.0 | 0.0 | 0.00 | 0.00 | 0.00 | 93 | 1016.3 |
| 20260830105516 | 25 | 306 | 0.0 | 0.0 | 0.00 | 0.00 | 0.00 | 93 | 1016.3 |
| 20260830105013 | 25 | 306 | 0.0 | 0.0 | 0.00 | 0.00 | 0.00 | 93 | 1016.3 |
| 20260830104451 | 25 | 307 | 0.0 | 0.0 | 0.00 | 0.00 | 0.00 | 93 | 1016.3 |
| 20260830103948 | 25 | 306 | 0.0 | 0.0 | 0.00 | 0.00 | 0.00 | 93 | 1016.3 |
| 20260830103445 | 25 | 306 | 0.0 | 0.0 | 0.00 | 0.00 | 0.00 | 93 | 1016.3 |
| 20260830102840 | 25 | 306 | 0.0 | 0.0 | 0.00 | 0.00 | 0.00 | 93 | 1016.3 |
| 20260830102336 | 25 | 307 | 0.0 | 0.0 | 0.00 | 0.00 | 0.00 | 93 | 1016.3 |
| 20260830101802 | 25 | 307 | 0.0 | 0.0 | 0.00 | 0.00 | 0.00 | 93 | 1016.3 |
| 20260830101259 | 25 | 306 | 0.0 | 0.0 | 0.00 | 0.00 | 0.00 | 93 | 1016.3 |
| 20260830100756 | 25 | 306 | 0.0 | 0.0 | 0.00 | 0.00 | 0.00 | 93 | 1015.9 |
| 20260830100252 | 25 | 306 | 0.0 | 0.0 | 0.00 | 0.00 | 0.00 | 93 | 1015.9 |
| 20260830095622 | 25 | 307 | 0.0 | 0.0 | 0.00 | 0.00 | 0.00 | 93 | 1015.9 |
| 20260830095119 | 25 | 306 | 0.0 | 0.0 | 0.00 | 0.00 | 0.00 | 93 | 1015.9 |
| 20260830094545 | 25 | 307 | 0.0 | 0.0 | 0.00 | 0.00 | 0.00 | 93 | 1015.9 |
| 20260830094041 | 25 | 306 | 0.0 | 0.0 | 0.00 | 0.00 | 0.00 | 93 | 1015.9 |
| 20260830093508 | 25 | 306 | 0.0 | 0.0 | 0.00 | 0.00 | 0.00 | 93 | 1015.9 |
| 20260830092934 | 25 | 306 | 0.0 | 0.0 | 0.00 | 0.00 | 0.00 | 93 | 1015.9 |
| 20260830092431 | 25 | 306 | 0.0 | 0.0 | 0.00 | 0.00 | 0.00 | 93 | 1015.9 |
| 20260830091928 | 25 | 306 | 0.0 | 0.0 | 0.00 | 0.00 | 0.00 | 93 | 1015.9 |
| 20260830091424 | 25 | 307 | 0.0 | 0.0 | 0.00 | 0.00 | 0.00 | 93 | 1015.9 |
| 20260830090921 | 25 | 306 | 0.0 | 0.0 | 0.00 | 0.00 | 0.00 | 93 | 1015.9 |
| 20260830090419 | 25 | 306 | 0.0 | 0.0 | 0.00 | 0.00 | 0.00 | 93 | 1015.9 |
| 20260830085915 | 25 | 307 | 0.0 | 0.0 | 0.00 | 0.00 | 0.00 | 93 | 1015.9 |
| 20260830085412 | 25 | 306 | 0.0 | 0.0 | 0.00 | 0.00 | 0.00 | 93 | 1015.9 |
| 20260830084838 | 25 | 306 | 0.0 | 0.0 | 0.00 | 0.00 | 0.00 | 93 | 1015.9 |
| 20260830084304 | 25 | 306 | 0.0 | 0.0 | 0.00 | 0.00 | 0.00 | 92 | 1015.9 |
| 20260830083802 | 25 | 306 | 0.0 | 0.0 | 0.00 | 0.00 | 0.00 | 92 | 1015.9 |
| 20260830083259 | 25 | 306 | 0.0 | 0.0 | 0.00 | 0.00 | 0.00 | 92 | 1015.9 |
| 20260830082724 | 25 | 307 | 0.0 | 0.0 | 0.00 | 0.00 | 0.00 | 92 | 1015.9 |
| 20260830082218 | 25 | 306 | 0.0 | 0.0 | 0.00 | 0.00 | 0.00 | 92 | 1015.9 |
| 20260830081713 | 25 | 306 | 0.0 | 0.0 | 0.00 | 0.00 | 0.00 | 92 | 1015.9 |
| 20260830081208 | 25 | 307 | 0.0 | 0.0 | 0.00 | 0.00 | 0.00 | 92 | 1015.9 |
| 20260830080705 | 25 | 306 | 0.0 | 0.0 | 0.00 | 0.00 | 0.00 | 92 | 1015.9 |
| 20260830080201 | 25 | 306 | 0.0 | 0.0 | 0.00 | 0.00 | 0.00 | 92 | 1016.3 |
| 20260830075621 | 25 | 306 | 0.0 | 0.0 | 0.00 | 0.00 | 0.00 | 92 | 1015.9 |
| 20260830075035 | 25 | 307 | 0.0 | 0.0 | 0.00 | 0.00 | 0.00 | 92 | 1016.3 |
| 20260830074532 | 26 | 306 | 0.0 | 0.0 | 0.00 | 0.00 | 0.00 | 92 | 1015.9 |
| 20260830074030 | 26 | 306 | 0.0 | 0.0 | 0.00 | 0.00 | 0.00 | 92 | 1016.3 |
| 20260830073455 | 26 | 306 | 0.0 | 0.0 | 0.00 | 0.00 | 0.00 | 92 | 1016.3 |
| 20260830072952 | 26 | 306 | 0.0 | 0.0 | 0.00 | 0.00 | 0.00 | 92 | 1016.3 |
| 20260830072450 | 26 | 306 | 0.0 | 0.0 | 0.00 | 0.00 | 0.00 | 91 | 1016.3 |
| 20260830071947 | 26 | 306 | 0.0 | 0.0 | 0.00 | 0.00 | 0.00 | 91 | 1016.3 |
| 20260830071444 | 26 | 306 | 0.0 | 0.0 | 0.00 | 0.00 | 0.00 | 91 | 1016.3 |
| 20260830070941 | 26 | 306 | 0.0 | 0.0 | 0.00 | 0.00 | 0.00 | 91 | 1016.3 |
| 20260830070348 | 26 | 306 | 0.0 | 0.0 | 0.00 | 0.00 | 0.00 | 91 | 1016.3 |
| 20260830065845 | 26 | 306 | 0.0 | 0.0 | 0.00 | 0.00 | 0.00 | 91 | 1016.3 |
| 20260830065341 | 26 | 307 | 0.0 | 0.0 | 0.00 | 0.00 | 0.00 | 91 | 1016.3 |
| 20260830064838 | 26 | 307 | 0.0 | 0.0 | 0.00 | 0.00 | 0.00 | 91 | 1016.3 |
| 20260830064336 | 26 | 306 | 0.0 | 0.0 | 0.00 | 0.00 | 0.00 | 91 | 1015.9 |
| 20260830063730 | 26 | 306 | 0.0 | 0.0 | 0.00 | 0.00 | 0.00 | 91 | 1015.9 |
| 20260830063227 | 26 | 307 | 0.0 | 0.0 | 0.00 | 0.00 | 0.00 | 91 | 1015.9 |
| 20260830062724 | 26 | 306 | 0.0 | 0.0 | 0.00 | 0.00 | 0.00 | 90 | 1015.9 |
| 20260830062221 | 26 | 306 | 0.0 | 0.0 | 0.00 | 0.00 | 0.00 | 90 | 1015.9 |
| 20260830061647 | 26 | 306 | 0.0 | 0.0 | 0.00 | 0.00 | 0.00 | 90 | 1015.9 |
| 20260830061143 | 26 | 306 | 0.0 | 0.0 | 0.00 | 0.00 | 0.00 | 90 | 1016.3 |
| 20260830060640 | 26 | 306 | 0.0 | 0.0 | 0.00 | 0.00 | 0.00 | 90 | 1016.3 |
| 20260830060118 | 26 | 306 | 0.0 | 0.0 | 0.00 | 0.00 | 0.00 | 90 | 1015.9 |
| 20260830055556 | 26 | 306 | 0.0 | 0.0 | 0.00 | 0.00 | 0.00 | 90 | 1015.9 |
| 20260830055054 | 26 | 306 | 0.0 | 0.0 | 0.00 | 0.00 | 0.00 | 90 | 1016.3 |
| 20260830054448 | 26 | 306 | 0.0 | 0.0 | 0.00 | 0.00 | 0.00 | 90 | 1016.3 |
| 20260830053945 | 26 | 306 | 0.0 | 0.0 | 0.00 | 0.00 | 0.00 | 90 | 1016.3 |
| 20260830053443 | 26 | 306 | 0.0 | 0.0 | 0.00 | 0.00 | 0.00 | 90 | 1016.3 |
| 20260830052939 | 26 | 307 | 0.0 | 0.0 | 0.00 | 0.00 | 0.00 | 90 | 1016.3 |
| 20260830052436 | 26 | 306 | 0.0 | 0.0 | 0.00 | 0.00 | 0.00 | 89 | 1016.3 |
| 20260830051918 | 26 | 306 | 0.0 | 0.0 | 0.00 | 0.00 | 0.00 | 89 | 1016.3 |
| 20260830051415 | 26 | 306 | 0.0 | 0.0 | 0.00 | 0.00 | 0.00 | 89 | 1016.3 |
| 20260830050857 | 26 | 306 | 0.0 | 0.0 | 0.00 | 0.00 | 0.00 | 89 | 1016.3 |
| 20260830050338 | 26 | 306 | 0.0 | 0.0 | 0.00 | 0.00 | 0.00 | 89 | 1016.3 |
| 20260830045836 | 26 | 306 | 0.0 | 0.0 | 0.00 | 0.00 | 0.00 | 89 | 1016.3 |
| 20260830045333 | 27 | 306 | 0.0 | 0.0 | 0.00 | 0.00 | 0.00 | 89 | 1016.3 |
| 20260830044759 | 27 | 306 | 0.0 | 0.0 | 0.00 | 0.00 | 0.00 | 89 | 1016.3 |
| 20260830044257 | 27 | 306 | 0.0 | 0.0 | 0.00 | 0.00 | 0.00 | 88 | 1016.3 |
| 20260830043754 | 27 | 306 | 0.0 | 0.0 | 0.00 | 0.00 | 0.00 | 88 | 1016.3 |
| 20260830043250 | 27 | 306 | 0.0 | 0.0 | 0.00 | 0.00 | 0.00 | 88 | 1016.3 |
| 20260830042747 | 27 | 306 | 0.0 | 0.0 | 0.00 | 0.00 | 0.00 | 88 | 1016.3 |
| 20260830042243 | 27 | 306 | 0.0 | 0.0 | 0.00 | 0.00 | 0.00 | 88 | 1016.3 |
| 20260830041607 | 27 | 306 | 0.0 | 0.0 | 0.00 | 0.00 | 0.00 | 88 | 1016.3 |
| 20260830041002 | 27 | 306 | 0.0 | 0.0 | 0.00 | 0.00 | 0.00 | 88 | 1016.3 |
| 20260830040459 | 27 | 307 | 0.0 | 0.0 | 0.00 | 0.00 | 0.00 | 88 | 1016.3 |
| 20260830035956 | 27 | 306 | 0.0 | 0.0 | 0.00 | 0.00 | 0.00 | 88 | 1016.3 |
| 20260830035452 | 27 | 306 | 0.0 | 0.0 | 0.00 | 0.00 | 0.00 | 87 | 1016.3 |
| 20260830034949 | 27 | 306 | 0.0 | 0.0 | 0.00 | 0.00 | 0.00 | 88 | 1016.3 |
| 20260830034447 | 27 | 306 | 0.0 | 0.0 | 0.00 | 0.00 | 0.00 | 87 | 1016.3 |
| 20260830033944 | 27 | 306 | 0.0 | 0.0 | 0.00 | 0.00 | 0.00 | 87 | 1016.3 |
| 20260830033441 | 27 | 306 | 0.0 | 0.0 | 0.00 | 0.00 | 0.00 | 87 | 1016.3 |
| 20260830032938 | 28 | 306 | 0.0 | 0.0 | 0.00 | 0.00 | 0.00 | 87 | 1016.3 |
| 20260830032435 | 28 | 306 | 0.0 | 0.0 | 0.00 | 0.00 | 0.00 | 87 | 1016.3 |
| 20260830031932 | 28 | 306 | 0.0 | 0.0 | 0.00 | 0.00 | 0.00 | 87 | 1016.3 |
| 20260830031428 | 28 | 306 | 0.0 | 0.0 | 0.00 | 0.00 | 0.00 | 87 | 1016.3 |
| 20260830030854 | 28 | 306 | 0.0 | 0.0 | 0.00 | 0.00 | 0.00 | 87 | 1015.9 |
| 20260830030351 | 28 | 306 | 0.0 | 0.0 | 0.00 | 0.00 | 0.00 | 86 | 1015.9 |
| 20260830025849 | 28 | 306 | 0.0 | 0.0 | 0.00 | 0.00 | 0.00 | 86 | 1015.9 |